| time (UTC) | temp F | wind direction | speed knots | gust knots | rain 1hr in | rain 24hr in | rain mn in | humidity % | barometer mb |
| 20260505003621 | 76 | 253 | 3.5 | 7.8 | 0.00 | 0.00 | 0.00 | 65 | 1019.6 |
| 20260505003121 | 76 | 242 | 2.6 | 7.8 | 0.00 | 0.00 | 0.00 | 64 | 1019.6 |
| 20260505002622 | 77 | 225 | 2.6 | 6.1 | 0.00 | 0.00 | 0.00 | 64 | 1019.5 |
| 20260505002119 | 77 | 172 | 1.7 | 6.1 | 0.00 | 0.00 | 0.00 | 63 | 1019.7 |
| 20260505001617 | 77 | 202 | 1.7 | 6.1 | 0.00 | 0.00 | 0.00 | 64 | 1019.7 |
| 20260505001117 | 77 | 156 | 1.7 | 5.2 | 0.00 | 0.00 | 0.00 | 63 | 1019.8 |
| 20260505000613 | 77 | 146 | 1.7 | 4.3 | 0.00 | 0.00 | 0.00 | 63 | 1019.7 |
| 20260505000113 | 77 | 153 | 1.7 | 6.1 | 0.00 | 0.00 | 0.00 | 63 | 1019.8 |
| 20260504235611 | 77 | 217 | 1.7 | 6.1 | 0.00 | 0.00 | 0.00 | 63 | 1019.7 |
| 20260504235111 | 77 | 174 | 0.9 | 3.5 | 0.00 | 0.00 | 0.00 | 63 | 1019.8 |
| 20260504234610 | 76 | 216 | 1.7 | 7.0 | 0.00 | 0.00 | 0.00 | 63 | 1019.8 |
| 20260504234112 | 76 | 168 | 2.6 | 7.0 | 0.00 | 0.00 | 0.00 | 64 | 1019.9 |
| 20260504233605 | 76 | 167 | 1.7 | 6.1 | 0.00 | 0.00 | 0.00 | 65 | 1019.9 |
| 20260504233105 | 76 | 252 | 1.7 | 4.3 | 0.00 | 0.00 | 0.00 | 63 | 1019.9 |
| 20260504232605 | 76 | 223 | 1.7 | 6.1 | 0.00 | 0.00 | 0.00 | 63 | 1020.0 |
| 20260504232104 | 76 | 150 | 1.7 | 6.1 | 0.00 | 0.00 | 0.00 | 65 | 1019.9 |
| 20260504231605 | 76 | 113 | 0.9 | 6.1 | 0.00 | 0.00 | 0.00 | 64 | 1020.0 |
| 20260504231106 | 76 | 165 | 1.7 | 4.3 | 0.00 | 0.00 | 0.00 | 63 | 1019.9 |
| 20260504230559 | 76 | 251 | 2.6 | 7.8 | 0.00 | 0.00 | 0.00 | 64 | 1020.0 |
| 20260504230059 | 75 | 137 | 2.6 | 7.8 | 0.00 | 0.00 | 0.00 | 67 | 1020.1 |
| 20260504225559 | 75 | 142 | 2.6 | 7.0 | 0.00 | 0.00 | 0.00 | 66 | 1020.1 |
| 20260504225100 | 75 | 178 | 2.6 | 5.2 | 0.00 | 0.00 | 0.00 | 65 | 1020.2 |
| 20260504224559 | 75 | 158 | 1.7 | 7.0 | 0.00 | 0.00 | 0.00 | 67 | 1020.2 |
| 20260504224100 | 75 | 182 | 2.6 | 7.0 | 0.00 | 0.00 | 0.00 | 66 | 1020.3 |
| 20260504223558 | 75 | 190 | 2.6 | 7.0 | 0.00 | 0.00 | 0.00 | 66 | 1020.4 |
| 20260504223055 | 75 | 149 | 2.6 | 7.0 | 0.00 | 0.00 | 0.00 | 66 | 1020.3 |
| 20260504222556 | 75 | 80 | 2.6 | 7.0 | 0.00 | 0.00 | 0.00 | 66 | 1020.5 |
| 20260504222055 | 74 | 130 | 2.6 | 7.0 | 0.00 | 0.00 | 0.00 | 67 | 1020.6 |
| 20260504221553 | 74 | 111 | 2.6 | 9.6 | 0.00 | 0.00 | 0.00 | 68 | 1020.6 |
| 20260504221054 | 74 | 224 | 3.5 | 9.6 | 0.00 | 0.00 | 0.00 | 68 | 1020.7 |
| 20260504220548 | 74 | 142 | 3.5 | 8.7 | 0.00 | 0.00 | 0.00 | 67 | 1020.7 |
| 20260504220047 | 74 | 120 | 3.5 | 7.8 | 0.00 | 0.00 | 0.00 | 69 | 1020.8 |
| 20260504215547 | 73 | 103 | 2.6 | 7.0 | 0.00 | 0.00 | 0.00 | 69 | 1020.7 |
| 20260504215046 | 73 | 135 | 2.6 | 7.0 | 0.00 | 0.00 | 0.00 | 68 | 1020.9 |
| 20260504214547 | 73 | 162 | 2.6 | 7.0 | 0.00 | 0.00 | 0.00 | 69 | 1021.1 |
| 20260504214048 | 73 | 156 | 2.6 | 7.0 | 0.00 | 0.00 | 0.00 | 69 | 1021.1 |
| 20260504213542 | 72 | 86 | 2.6 | 7.0 | 0.00 | 0.00 | 0.00 | 67 | 1021.1 |
| 20260504213043 | 72 | 144 | 1.7 | 7.0 | 0.00 | 0.00 | 0.00 | 69 | 1021.3 |
| 20260504212544 | 72 | 182 | 2.6 | 7.0 | 0.00 | 0.00 | 0.00 | 68 | 1021.3 |
| 20260504212042 | 72 | 219 | 2.6 | 10.4 | 0.00 | 0.00 | 0.00 | 69 | 1021.3 |
| 20260504211540 | 72 | 115 | 1.7 | 10.4 | 0.00 | 0.00 | 0.00 | 70 | 1021.3 |
| 20260504211042 | 71 | 130 | 2.6 | 7.0 | 0.00 | 0.00 | 0.00 | 72 | 1021.4 |
| 20260504210536 | 71 | 163 | 2.6 | 7.0 | 0.00 | 0.00 | 0.00 | 71 | 1021.5 |
| 20260504210034 | 71 | 207 | 1.7 | 7.0 | 0.00 | 0.00 | 0.00 | 70 | 1021.6 |
| 20260504205532 | 70 | 106 | 2.6 | 7.0 | 0.00 | 0.00 | 0.00 | 74 | 1021.6 |
| 20260504205033 | 70 | 142 | 2.6 | 7.0 | 0.00 | 0.00 | 0.00 | 73 | 1021.7 |
| 20260504204532 | 70 | 225 | 2.6 | 7.0 | 0.00 | 0.00 | 0.00 | 70 | 1021.9 |
| 20260504204034 | 70 | 184 | 2.6 | 7.0 | 0.00 | 0.00 | 0.00 | 72 | 1021.9 |
| 20260504203529 | 69 | 121 | 2.6 | 7.0 | 0.00 | 0.00 | 0.00 | 74 | 1022.0 |
| 20260504203028 | 69 | 317 | 2.6 | 7.0 | 0.00 | 0.00 | 0.00 | 73 | 1022.0 |
| 20260504202530 | 68 | 148 | 2.6 | 7.0 | 0.00 | 0.00 | 0.00 | 75 | 1022.0 |
| 20260504202029 | 68 | 153 | 2.6 | 6.1 | 0.00 | 0.00 | 0.00 | 73 | 1022.0 |
| 20260504201527 | 68 | 165 | 1.7 | 7.0 | 0.00 | 0.00 | 0.00 | 74 | 1022.1 |
| 20260504201026 | 67 | 147 | 1.7 | 7.0 | 0.00 | 0.00 | 0.00 | 74 | 1022.1 |
| 20260504200521 | 67 | 115 | 2.6 | 7.8 | 0.00 | 0.00 | 0.00 | 73 | 1022.1 |
| 20260504200021 | 67 | 157 | 2.6 | 7.8 | 0.00 | 0.00 | 0.00 | 73 | 1022.1 |
| 20260504195521 | 67 | 167 | 2.6 | 7.8 | 0.00 | 0.00 | 0.00 | 73 | 1022.1 |
| 20260504195020 | 67 | 123 | 2.6 | 7.8 | 0.00 | 0.00 | 0.00 | 74 | 1022.1 |
| 20260504194520 | 67 | 170 | 1.7 | 7.0 | 0.00 | 0.00 | 0.00 | 74 | 1022.3 |
| 20260504194022 | 66 | 201 | 2.6 | 6.1 | 0.00 | 0.00 | 0.00 | 75 | 1022.1 |
| 20260504193519 | 66 | 194 | 2.6 | 6.1 | 0.00 | 0.00 | 0.00 | 76 | 1022.2 |
| 20260504193020 | 65 | 191 | 2.6 | 6.1 | 0.00 | 0.00 | 0.00 | 76 | 1022.0 |
| 20260504192513 | 65 | 201 | 2.6 | 7.8 | 0.00 | 0.00 | 0.00 | 78 | 1022.1 |
| 20260504192012 | 64 | 133 | 2.6 | 8.7 | 0.00 | 0.00 | 0.00 | 78 | 1022.2 |
| 20260504191508 | 64 | 170 | 2.6 | 8.7 | 0.00 | 0.00 | 0.00 | 78 | 1022.3 |
| 20260504191008 | 64 | 126 | 2.6 | 8.7 | 0.00 | 0.00 | 0.00 | 77 | 1022.4 |
| 20260504190510 | 64 | 167 | 2.6 | 7.0 | 0.00 | 0.00 | 0.00 | 78 | 1022.4 |
| 20260504190008 | 64 | 131 | 1.7 | 7.0 | 0.00 | 0.00 | 0.00 | 78 | 1022.4 |
| 20260504185509 | 63 | 115 | 2.6 | 7.8 | 0.00 | 0.00 | 0.00 | 80 | 1022.5 |
| 20260504185009 | 63 | 150 | 2.6 | 7.8 | 0.00 | 0.00 | 0.00 | 80 | 1022.5 |
| 20260504184504 | 62 | 192 | 2.6 | 7.0 | 0.00 | 0.00 | 0.00 | 79 | 1022.5 |
| 20260504184006 | 63 | 182 | 2.6 | 7.0 | 0.00 | 0.00 | 0.00 | 79 | 1022.6 |
| 20260504183505 | 62 | 186 | 2.6 | 6.1 | 0.00 | 0.00 | 0.00 | 81 | 1022.5 |
| 20260504183004 | 62 | 156 | 2.6 | 7.0 | 0.00 | 0.00 | 0.00 | 80 | 1022.5 |
| 20260504182504 | 62 | 175 | 1.7 | 7.0 | 0.00 | 0.00 | 0.00 | 81 | 1022.5 |
| 20260504182006 | 62 | 204 | 2.6 | 7.8 | 0.00 | 0.00 | 0.00 | 81 | 1022.4 |
| 20260504181501 | 61 | 121 | 2.6 | 7.8 | 0.00 | 0.00 | 0.00 | 81 | 1022.5 |
| 20260504181001 | 61 | 211 | 2.6 | 7.8 | 0.00 | 0.00 | 0.00 | 81 | 1022.4 |
| 20260504180501 | 61 | 151 | 3.5 | 7.8 | 0.00 | 0.00 | 0.00 | 81 | 1022.4 |
| 20260504180001 | 61 | 163 | 2.6 | 6.1 | 0.00 | 0.00 | 0.00 | 81 | 1022.5 |
| 20260504175500 | 61 | 190 | 2.6 | 7.8 | 0.00 | 0.00 | 0.00 | 81 | 1022.4 |
| 20260504175002 | 61 | 191 | 2.6 | 7.8 | 0.00 | 0.00 | 0.00 | 81 | 1022.4 |
| 20260504174457 | 61 | 173 | 2.6 | 7.0 | 0.00 | 0.00 | 0.00 | 82 | 1022.5 |
| 20260504173957 | 60 | 144 | 2.6 | 7.0 | 0.00 | 0.00 | 0.00 | 82 | 1022.4 |
| 20260504173458 | 60 | 171 | 2.6 | 7.0 | 0.00 | 0.00 | 0.00 | 82 | 1022.4 |
| 20260504172954 | 60 | 162 | 1.7 | 7.8 | 0.00 | 0.00 | 0.00 | 82 | 1022.4 |
| 20260504172455 | 60 | 216 | 1.7 | 7.8 | 0.00 | 0.00 | 0.00 | 83 | 1022.4 |
| 20260504171953 | 60 | 195 | 1.7 | 6.1 | 0.00 | 0.00 | 0.00 | 83 | 1022.4 |
| 20260504171452 | 60 | 194 | 2.6 | 8.7 | 0.00 | 0.00 | 0.00 | 83 | 1022.4 |
| 20260504170953 | 59 | 159 | 2.6 | 8.7 | 0.00 | 0.00 | 0.00 | 83 | 1022.4 |
| 20260504170447 | 59 | 149 | 2.6 | 7.0 | 0.00 | 0.00 | 0.00 | 84 | 1022.3 |
| 20260504160435 | 57 | 165 | 2.6 | 9.6 | 0.00 | 0.00 | 0.00 | 86 | 1022.4 |
| 20260504150929 | 56 | 231 | 2.6 | 8.7 | 0.00 | 0.00 | 0.00 | 87 | 1022.2 |
| 20260504150424 | 56 | 148 | 3.5 | 8.7 | 0.00 | 0.00 | 0.00 | 87 | 1022.1 |
| 20260504140916 | 55 | 205 | 2.6 | 6.1 | 0.00 | 0.00 | 0.00 | 89 | 1021.5 |
| 20260504140412 | 54 | 153 | 2.6 | 10.4 | 0.00 | 0.00 | 0.00 | 89 | 1021.4 |
| 20260504130400 | 53 | 175 | 2.6 | 7.0 | 0.00 | 0.00 | 0.00 | 89 | 1020.6 |
| 20260504110336 | 54 | 159 | 1.7 | 7.0 | 0.00 | 0.00 | 0.00 | 89 | 1019.7 |
| 20260504100327 | 55 | 208 | 1.7 | 6.1 | 0.00 | 0.00 | 0.00 | 87 | 1019.3 |
| 20260504081810 | 60 | 271 | 1.7 | 4.3 | 0.00 | 0.00 | 0.00 | 79 | 1018.3 |
| 20260504081309 | 60 | 228 | 1.7 | 5.2 | 0.00 | 0.00 | 0.00 | 78 | 1018.3 |
| 20260504080809 | 60 | 188 | 1.7 | 5.2 | 0.00 | 0.00 | 0.00 | 78 | 1018.2 |
| 20260504080309 | 60 | 223 | 1.7 | 6.1 | 0.00 | 0.00 | 0.00 | 78 | 1018.2 |
| 20260504070302 | 65 | 236 | 2.6 | 6.1 | 0.00 | 0.00 | 0.00 | 70 | 1017.3 |
| 20260504050746 | 74 | 295 | 2.6 | 6.1 | 0.00 | 0.00 | 0.00 | 51 | 1016.4 |
| 20260504050245 | 74 | 286 | 2.6 | 7.0 | 0.00 | 0.00 | 0.00 | 51 | 1016.3 |
| 20260504045746 | 74 | 294 | 1.7 | 7.0 | 0.00 | 0.00 | 0.00 | 51 | 1016.2 |
| 20260504045246 | 73 | 292 | 1.7 | 4.3 | 0.00 | 0.00 | 0.00 | 51 | 1016.1 |
| 20260504044746 | 73 | 323 | 0.9 | 4.3 | 0.00 | 0.00 | 0.00 | 51 | 1016.1 |
| 20260504044245 | 74 | 298 | 0.0 | 2.6 | 0.00 | 0.00 | 0.00 | 52 | 1016.0 |
| 20260504043745 | 74 | 288 | 0.0 | 1.7 | 0.00 | 0.00 | 0.00 | 51 | 1015.8 |
| 20260504043244 | 75 | 288 | 0.0 | 1.7 | 0.00 | 0.00 | 0.00 | 51 | 1015.7 |
| 20260504042743 | 75 | 261 | 0.0 | 0.0 | 0.00 | 0.00 | 0.00 | 50 | 1015.6 |
| 20260504042243 | 76 | 263 | 0.0 | 0.0 | 0.00 | 0.00 | 0.00 | 49 | 1015.5 |
| 20260504041744 | 76 | 263 | 0.0 | 0.9 | 0.00 | 0.00 | 0.00 | 49 | 1015.4 |
| 20260504041244 | 77 | 263 | 0.0 | 1.7 | 0.00 | 0.00 | 0.00 | 48 | 1015.4 |
| 20260504040744 | 78 | 263 | 0.9 | 2.6 | 0.00 | 0.00 | 0.00 | 47 | 1015.2 |
| 20260504040239 | 78 | 263 | 0.9 | 2.6 | 0.00 | 0.00 | 0.00 | 46 | 1015.3 |
| 20260504035739 | 79 | 257 | 0.9 | 2.6 | 0.00 | 0.00 | 0.00 | 46 | 1015.2 |
| 20260504035238 | 79 | 256 | 0.9 | 5.2 | 0.00 | 0.00 | 0.00 | 46 | 1015.2 |
| 20260504034737 | 79 | 256 | 0.9 | 5.2 | 0.00 | 0.00 | 0.00 | 46 | 1015.3 |
| 20260504034237 | 80 | 266 | 0.9 | 3.5 | 0.00 | 0.00 | 0.00 | 46 | 1015.2 |
| 20260504033737 | 80 | 273 | 0.9 | 2.6 | 0.00 | 0.00 | 0.00 | 46 | 1015.2 |
| 20260504033234 | 81 | 275 | 0.9 | 2.6 | 0.00 | 0.00 | 0.00 | 46 | 1015.2 |
| 20260504032733 | 82 | 274 | 0.9 | 2.6 | 0.00 | 0.00 | 0.00 | 45 | 1015.1 |
| 20260504032231 | 82 | 290 | 0.9 | 2.6 | 0.00 | 0.00 | 0.00 | 45 | 1015.1 |
| 20260504031732 | 83 | 265 | 1.7 | 3.5 | 0.00 | 0.00 | 0.00 | 44 | 1015.1 |
| 20260504031232 | 84 | 266 | 1.7 | 3.5 | 0.00 | 0.00 | 0.00 | 43 | 1015.0 |
| 20260504030731 | 85 | 265 | 0.9 | 3.5 | 0.00 | 0.00 | 0.00 | 42 | 1015.0 |
| 20260504030228 | 86 | 276 | 1.7 | 4.3 | 0.00 | 0.00 | 0.00 | 41 | 1015.0 |
| 20260504025727 | 86 | 277 | 1.7 | 4.3 | 0.00 | 0.00 | 0.00 | 39 | 1015.0 |
| 20260504025229 | 87 | 283 | 1.7 | 3.5 | 0.00 | 0.00 | 0.00 | 38 | 1015.0 |
| 20260504024727 | 88 | 286 | 0.9 | 2.6 | 0.00 | 0.00 | 0.00 | 37 | 1014.8 |
| 20260504024225 | 88 | 303 | 0.0 | 2.6 | 0.00 | 0.00 | 0.00 | 36 | 1014.9 |
| 20260504023725 | 89 | 304 | 0.9 | 2.6 | 0.00 | 0.00 | 0.00 | 36 | 1014.7 |
| 20260504023220 | 89 | 314 | 0.9 | 3.5 | 0.00 | 0.00 | 0.00 | 35 | 1014.6 |
| 20260504022719 | 89 | 303 | 0.9 | 3.5 | 0.00 | 0.00 | 0.00 | 35 | 1014.6 |
| 20260504022219 | 89 | 292 | 1.7 | 7.0 | 0.00 | 0.00 | 0.00 | 35 | 1014.7 |
| 20260504021719 | 89 | 315 | 2.6 | 7.0 | 0.00 | 0.00 | 0.00 | 34 | 1014.7 |
| 20260504021219 | 89 | 325 | 2.6 | 6.1 | 0.00 | 0.00 | 0.00 | 34 | 1014.8 |
| 20260504020720 | 89 | 286 | 2.6 | 6.1 | 0.00 | 0.00 | 0.00 | 34 | 1014.7 |
| 20260504020214 | 89 | 275 | 3.5 | 8.7 | 0.00 | 0.00 | 0.00 | 35 | 1014.9 |
| 20260504015713 | 89 | 285 | 3.5 | 8.7 | 0.00 | 0.00 | 0.00 | 34 | 1015.0 |
| 20260504015213 | 90 | 290 | 3.5 | 10.4 | 0.00 | 0.00 | 0.00 | 36 | 1014.9 |
| 20260504014713 | 90 | 28 | 3.5 | 10.4 | 0.00 | 0.00 | 0.00 | 35 | 1014.9 |
| 20260504014213 | 90 | 315 | 3.5 | 7.8 | 0.00 | 0.00 | 0.00 | 35 | 1014.8 |
| 20260504013713 | 90 | 286 | 2.6 | 7.0 | 0.00 | 0.00 | 0.00 | 35 | 1015.0 |
| 20260504013208 | 91 | 281 | 2.6 | 6.1 | 0.00 | 0.00 | 0.00 | 35 | 1015.0 |
| 20260504012707 | 91 | 297 | 2.6 | 8.7 | 0.00 | 0.00 | 0.00 | 34 | 1015.0 |
| 20260504012207 | 91 | 279 | 2.6 | 8.7 | 0.00 | 0.00 | 0.00 | 34 | 1015.0 |
| 20260504011707 | 92 | 342 | 2.6 | 7.8 | 0.00 | 0.00 | 0.00 | 34 | 1015.2 |
| 20260504011207 | 92 | 308 | 2.6 | 7.8 | 0.00 | 0.00 | 0.00 | 34 | 1015.2 |
| 20260504010708 | 92 | 325 | 2.6 | 7.8 | 0.00 | 0.00 | 0.00 | 34 | 1015.2 |
| 20260504010202 | 92 | 355 | 2.6 | 7.8 | 0.00 | 0.00 | 0.00 | 34 | 1015.2 |
| 20260504005701 | 92 | 17 | 2.6 | 6.1 | 0.00 | 0.00 | 0.00 | 34 | 1015.2 |
| 20260504005201 | 92 | 287 | 2.6 | 7.0 | 0.00 | 0.00 | 0.00 | 35 | 1015.2 |
| 20260504004702 | 92 | 279 | 1.7 | 7.0 | 0.00 | 0.00 | 0.00 | 34 | 1015.2 |
| 20260504004201 | 92 | 25 | 1.7 | 6.1 | 0.00 | 0.00 | 0.00 | 35 | 1015.5 |
| 20260504003701 | 92 | 275 | 2.6 | 7.0 | 0.00 | 0.00 | 0.00 | 35 | 1015.3 |